Location: Helds Island Access
(38.5526°N, 91.5997°W)
Time: 20:34:01
(UTC-06:00)

Daily predictions for brighter satellites

Satellite Brightness Start Highest point End
(mag) Time Altitude Azimuth Time Altitude Azimuth Time Altitude Azimuth
CZ-4 R/B 3.9 18:10:37 10° SSW 18:14:14 30° W 18:17:55 10° NW
FREGAT/IRIS 3.9 18:14:41 10° SE 18:17:07 21° ENE 18:19:33 10° NNE
ALOS 3.4 18:16:15 10° ESE 18:19:54 23° ENE 18:23:34 10° NNE
Cosmos 1536 Rocket 4.3 18:21:35 10° NNE 18:25:37 33° ENE 18:29:39 10° SE
Cosmos 1818 3.7 18:21:27 10° SSW 18:26:44 55° ESE 18:32:04 10° NE
Meteor 1-18 Rocket 4.2 18:22:58 10° N 18:28:32 72° E 18:34:07 10° SSE
Cosmos 1484 Rocket 4.3 18:28:25 10° S 18:32:13 43° W 18:35:59 10° NNW
SL-16 R/B 2.2 18:26:42 10° NNW 18:32:23 70° ENE 18:38:01 10° SSE
SJ-6B 3.2 18:29:29 10° SE 18:33:18 42° ENE 18:37:03 10° N
Nadezhda 1 Rocket 3.9 18:28:22 10° N 18:34:29 85° E 18:40:33 10° S
TSX-5 3.9 18:32:30 10° S 18:35:29 35° ESE 18:38:25 10° NE
DNEPR-1 R/B 3.5 18:31:26 10° NNW 18:35:37 59° NE 18:39:51 10° SE
Resurs 01 Rocket 2.6 18:35:39 10° SE 18:39:19 26° ENE 18:43:00 10° NNE
Cosmos 407 Rocket 3.5 18:35:09 10° SSW 18:40:23 85° ESE 18:45:42 10° NNE
Cosmos 1340 3.4 18:38:15 10° NNE 18:41:40 31° ENE 18:45:04 10° SE
Gbstr 26 Del rocket 3.7 18:38:26 10° SSW 18:41:45 27° SE 18:43:57 16° E
Cosmos 676 Rocket 4.0 18:37:27 10° S 18:42:31 60° ESE 18:47:39 10° NNE
Cosmos 1238 Rocket 3.3 18:40:43 10° NNE 18:43:08 22° ENE 18:45:30 10° SE
Meteor 1-20 Rocket 4.4 18:38:01 10° S 18:43:51 86° W 18:49:44 10° N
DELTA 2 R/B (1) 3.6 18:38:20 10° W 18:43:59 84° N 18:48:38 15° E
Cosmos 2181 Rocket 4.2 18:42:37 10° N 18:48:38 47° ENE 18:54:40 10° SSE
Cosmos 2322 Rocket 2.3 18:44:39 10° NNW 18:50:17 82° WSW 18:55:54 10° SSE
Tiangong 2 0.9 18:49:48 10° WNW 18:52:53 78° NNE 18:54:34 24° ESE
Cosmos 1300 Rocket 3.8 18:51:20 10° SSE 18:55:33 47° E 18:59:49 10° NNE
Meteor 1-13 Rocket 4.3 18:52:02 10° N 18:57:27 53° ENE 19:02:56 10° SSE
Cosmos 1536 3.7 18:54:34 10° SSE 18:57:59 27° E 19:01:23 10° NNE
Resurs 1-3 4.1 18:57:53 10° SE 19:01:56 38° ENE 19:06:00 10° N
Cosmos 2322 4.1 18:57:32 10° N 19:02:59 43° ENE 19:07:31 14° SE
CZ-2D R/B 4.1 19:03:05 26° E 19:03:50 28° ENE 19:07:09 10° NNE
Okean 1 3.7 19:01:04 10° NNW 19:05:07 69° W 19:09:09 10° S
FENGYUN 3A 3.6 18:59:48 10° SSE 19:05:09 66° ENE 19:10:32 10° N
Cosmos 1140 Rocket 3.4 19:00:31 10° S 19:05:31 59° ESE 19:10:35 10° NNE
Cosmos 2074 Rocket 4.5 19:00:29 10° SSE 19:06:04 36° E 19:11:41 10° NNE
Cosmos 1709 Rocket 4.0 19:00:30 10° S 19:06:44 88° E 19:12:57 10° N
Cosmos 1461 3.0 19:04:28 10° NW 19:08:28 70° WSW 19:12:34 10° SSE
SL-19 R/B 4.3 19:03:22 10° SSE 19:08:53 62° ENE 19:14:43 10° N
H-2A R/B 2.8 19:10:08 15° SSE 19:13:02 49° ENE 19:16:39 10° N
Spot 2 Rocket 3.4 19:10:17 10° SSE 19:15:15 64° ENE 19:20:16 10° N
COSMOS 2428 3.5 19:10:58 10° N 19:15:54 29° ENE 19:16:58 27° ENE
Meteor 2-4 Rocket 3.8 19:11:42 10° N 19:17:04 47° ENE 19:22:16 10° SSE
Cosmos 614 Rocket 3.9 19:12:55 10° S 19:17:53 57° ESE 19:22:52 10° NNE
SAR-Lupe-4 4.0 19:20:40 40° NE 19:20:40 40° NE 19:23:39 10° N
Helios 1A 3.4 19:21:29 38° ENE 19:21:33 38° ENE 19:25:26 10° N
Cosmos 1850 Rocket 4.1 19:19:11 10° S 19:24:19 55° ESE 19:29:31 10° NNE
Cosmos 2237 Rocket 4.2 19:22:34 10° NNE 19:23:53 12° NE 19:23:53 12° NE
Okean 1 Rocket 3.0 19:21:57 10° S 19:26:25 81° E 19:30:55 10° N
HJ-1C 4.2 19:26:17 10° S 19:29:35 52° W 19:32:53 10° NNW
USA 229 DEB 4.5 19:24:06 10° NNW 19:30:31 34° NE 19:32:15 30° ENE
USA 229 4.5 19:24:12 10° NNW 19:30:36 34° NE 19:32:19 30° ENE
GPS 2-04 Rocket1 4.1 19:27:08 10° SW 19:30:46 27° SSE 19:30:46 27° SSE
Meteor 1-11 Rocket 3.8 19:25:14 10° S 19:30:59 84° W 19:36:55 10° N
Envisat 4.2 19:33:04 25° NE 19:33:04 25° NE 19:35:56 10° N
GEOS 3 Rocket 4.3 19:29:16 10° NNE 19:34:22 55° NW 19:39:30 10° SW
Cosmos 2219 3.2 19:32:21 10° S 19:37:58 58° ESE 19:41:01 27° NE
Cosmos 2360 Rocket 2.2 19:36:48 10° NNW 19:42:29 79° WSW 19:47:02 16° SSE
Helios 1B rocket 2.5 19:44:11 63° SSE 19:44:11 63° SSE 19:47:46 10° S
Cosmos 2219 Rocket 3.4 19:40:42 10° N 19:44:08 25° NE 19:44:08 25° NE
Okean 1-7 Rocket 3.5 19:42:06 10° N 19:46:39 89° E 19:48:12 41° S
Cosmos 1025 Rocket 3.5 19:52:11 10° N 19:55:30 51° N 19:55:30 51° N
ALOS 3.9 19:52:56 10° SSW 19:57:08 33° W 20:01:22 10° NNW
Spot 1 4.2 19:59:36 65° WNW 19:59:36 65° WNW 20:03:20 10° NNW
Meteor 2-13 Rocket 4.4 19:55:09 10° S 20:01:50 59° ENE 20:07:07 10° NNE
ATLAS 2A CENTAUR R/B 4.2 20:04:00 10° SW 20:07:24 21° S 20:07:24 21° S
Cosmos 2333 Rocket 3.5 20:06:02 10° N 20:09:02 27° NNE 20:09:02 27° NNE
BREEZE-M DEB (TANK) 3.1 20:09:38 10° NW 20:12:05 64° WNW 20:12:05 64° WNW
Resurs 01 Rocket 3.7 20:12:02 10° SSW 20:15:42 26° W 20:19:23 10° NW
Cosmos 1610 Rocket 4.5 20:18:52 10° S 20:25:07 77° W 20:31:20 10° N
DELTA 2 R/B (1) 4.3 20:24:54 10° W 20:29:26 47° WSW 20:29:26 47° WSW
COSMOS 2428 4.1 20:55:01 10° NW 20:59:03 34° WNW 20:59:03 34° WNW
Cosmos 2237 Rocket 4.4 21:04:15 10° NNW 21:05:43 19° NNW 21:05:43 19° NNW
